Date,TemperatureHighF,TemperatureAvgF,TemperatureLowF,DewpointHighF,DewpointAvgF,DewpointLowF,HumidityHigh,HumidityAvg,HumidityLow,PressureMaxIn,PressureMinIn,WindSpeedMaxMPH,WindSpeedAvgMPH,GustSpeedMaxMPH,PrecipitationSumIn
2013-1-1,12.0,4.6,-2.0,5.0,-0.8,-7.0,79,78,73,30.23,30.12,3,0,9,0.00
2013-1-2,24.0,18.1,5.0,16.0,10.8,0.0,78,73,57,30.13,30.03,4,0,8,0.00
2013-1-3,25.0,21.0,13.0,19.0,14.8,6.0,77,76,75,30.20,30.03,6,2,13,0.00
2013-1-4,28.0,18.2,9.0,20.0,11.8,3.0,78,76,72,30.17,30.06,5,2,13,0.00
2013-1-5,35.0,24.7,10.0,27.0,17.7,4.0,76,74,72,30.20,29.85,4,1,12,0.00
2013-1-6,35.0,25.5,15.0,27.0,18.4,9.0,76,74,72,30.27,29.84,8,3,16,0.00
2013-1-7,37.0,26.1,13.0,26.0,18.5,7.0,77,73,63,30.26,30.01,7,2,18,0.00
2013-1-8,38.0,32.2,22.0,30.0,24.5,15.0,75,73,71,30.09,29.91,5,0,13,0.11
2013-1-9,39.0,33.6,21.0,31.0,25.5,14.0,75,72,65,30.43,29.90,9,3,22,0.17
2013-1-10,39.0,30.9,19.0,31.0,23.4,12.0,76,73,71,30.48,29.86,6,1,15,0.32
2013-1-11,46.0,40.2,36.0,40.0,33.8,29.0,79,78,76,29.86,29.58,3,0,11,0.27
2013-1-12,50.0,36.6,24.0,39.0,28.2,17.0,75,71,67,29.98,29.59,10,4,21,0.01
2013-1-13,24.0,17.7,13.0,17.0,10.9,6.0,76,75,73,30.18,29.89,8,4,19,0.00
2013-1-14,23.0,14.6,7.0,13.0,7.5,1.0,77,73,62,30.42,30.17,7,1,16,0.00
2013-1-15,29.0,18.9,9.0,17.0,11.1,3.0,81,71,59,30.40,30.07,5,1,11,0.00
2013-1-16,33.0,25.9,17.0,25.0,18.2,10.0,75,73,67,30.07,29.74,8,2,20,0.00
2013-1-17,28.0,19.4,13.0,20.0,9.6,4.0,75,65,51,30.37,30.03,7,2,14,0.00
2013-1-18,41.0,28.9,12.0,32.0,21.1,6.0,76,73,70,30.39,29.80,8,3,22,0.02
2013-1-19,43.0,36.6,17.0,34.0,27.0,7.0,71,69,48,29.91,29.63,15,4,39,0.01
2013-1-20,16.0,10.6,6.0,7.0,1.6,-1.0,73,67,56,30.29,29.91,16,5,30,0.00
2013-1-21,10.0,3.1,-3.0,3.0,-4.5,-10.0,77,70,61,30.25,30.09,10,4,23,0.00
2013-1-22,7.0,-0.3,-7.0,-3.0,-7.7,-13.0,77,71,63,30.33,30.25,8,3,16,0.00
2013-1-23,18.0,11.2,0.0,11.0,4.5,-5.0,77,74,68,30.37,30.05,7,2,16,0.00
2013-1-24,18.0,7.9,0.0,10.0,0.8,-6.0,82,72,65,30.63,30.32,3,0,8,0.00
2013-1-25,25.0,19.8,15.0,18.0,12.2,8.0,75,72,61,30.32,29.91,7,2,15,0.00
2013-1-26,23.0,16.0,6.0,15.0,8.7,0.0,77,73,63,30.37,30.16,5,1,10,0.00
2013-1-27,33.0,27.8,23.0,26.0,20.2,15.0,76,73,70,30.32,29.86,4,1,13,0.00
2013-1-28,40.0,35.5,33.0,30.0,27.9,25.0,78,74,68,29.94,29.76,6,1,12,0.26
2013-1-29,56.0,43.7,35.0,50.0,36.7,28.0,80,77,70,29.78,29.47,7,1,14,1.20
2013-1-30,36.0,28.3,17.0,30.0,21.8,10.0,78,75,72,29.56,29.29,2,0,5,0.56
2013-1-31,17.0,9.2,2.0,10.0,3.0,-4.0,77,76,72,30.10,29.56,0,0,0,0.01
2013-2-1,6.0,1.1,-4.0,0.0,-4.8,-9.0,79,76,70,30.28,30.10,0,0,0,0.00
2013-2-2,10.0,6.8,0.0,4.0,0.7,-5.0,78,76,71,30.11,30.00,0,0,4,0.00
2013-2-3,18.0,11.6,2.0,11.0,5.2,-4.0,77,75,69,30.01,29.91,9,2,16,0.00
2013-2-4,17.0,12.5,5.0,10.0,5.6,-1.0,77,74,67,30.00,29.91,1,0,6,0.00
2013-2-5,28.0,17.9,3.0,20.0,11.0,-3.0,77,74,72,30.07,29.74,4,1,11,0.00
2013-2-6,33.0,19.6,-1.0,24.0,12.5,-6.0,77,74,70,30.21,30.05,3,0,10,0.15
2013-2-7,34.0,31.4,21.0,27.0,24.0,14.0,76,74,70,30.07,29.90,3,0,9,0.01
2013-2-8,24.0,19.3,5.0,17.0,12.0,-1.0,76,73,71,30.37,30.05,4,0,12,0.01
2013-2-9,29.0,21.5,4.0,21.0,14.1,-2.0,76,73,70,30.38,30.06,2,0,11,0.01
2013-2-10,42.0,34.1,22.0,36.0,26.7,15.0,78,74,68,30.06,29.39,9,2,19,0.17
2013-2-11,40.0,31.8,27.0,30.0,23.3,20.0,74,71,68,29.96,29.39,11,7,27,0.19
2013-2-12,28.0,24.4,21.0,21.0,17.3,13.0,75,74,72,30.06,29.85,7,2,16,0.01
2013-2-13,39.0,29.2,19.0,30.0,21.5,12.0,75,72,70,29.85,29.67,4,0,8,0.05
2013-2-14,36.0,33.4,29.0,28.0,25.2,21.0,76,71,69,29.96,29.55,9,3,18,0.09
2013-2-15,29.0,20.4,13.0,21.0,11.7,5.0,76,69,55,30.18,29.96,7,3,13,0.01
2013-2-16,18.0,11.6,4.0,6.0,3.3,-2.0,77,69,55,30.17,30.11,6,1,15,0.00
2013-2-17,25.0,14.5,0.0,16.0,5.1,-6.0,77,67,52,30.18,29.93,3,0,10,0.00
2013-2-18,46.0,34.9,25.0,37.0,26.6,16.0,76,72,68,29.93,29.43,6,1,16,0.17
2013-2-19,27.0,13.8,8.0,20.0,7.2,1.0,77,74,72,30.14,29.50,9,5,19,0.17
2013-2-20,21.0,12.8,5.0,13.0,6.0,-1.0,77,74,68,30.36,30.14,7,2,12,0.00
2013-2-21,27.0,18.0,8.0,19.0,11.3,2.0,76,74,71,30.41,30.06,7,2,18,0.00
2013-2-22,32.0,27.7,24.0,24.0,20.0,17.0,74,72,70,30.06,29.76,6,2,19,0.12
2013-2-23,31.0,26.3,21.0,23.0,18.6,14.0,76,72,71,29.91,29.81,5,2,14,0.04
2013-2-24,36.0,25.2,16.0,27.0,17.6,9.0,75,73,68,30.12,29.91,1,0,7,0.06
2013-2-25,40.0,29.1,13.0,30.0,20.6,6.0,74,70,64,30.16,30.03,1,0,6,0.01
2013-2-26,33.0,31.8,28.0,25.0,23.9,20.0,75,72,70,30.03,29.62,9,4,18,0.01
2013-2-27,33.0,30.9,28.0,25.0,23.4,21.0,75,73,71,29.75,29.59,4,1,10,0.18
2013-2-28,35.0,30.7,24.0,27.0,21.9,-99.9,76,72,69,30.12,29.75,5,1,15,0.07
2013-3-1,26.0,23.1,18.0,19.0,16.1,11.0,76,74,73,30.24,30.11,4,1,12,0.01
2013-3-2,25.0,17.6,8.0,19.0,10.8,2.0,77,74,68,30.23,30.14,3,0,10,0.00
2013-3-3,27.0,13.8,-1.0,16.0,5.4,-6.0,78,69,53,30.15,30.08,2,0,6,0.00
2013-3-4,33.0,21.9,5.0,25.0,14.8,-1.0,77,74,71,30.11,30.02,5,1,14,0.00
2013-3-5,31.0,28.5,25.0,24.0,20.7,17.0,74,72,70,30.05,29.87,4,1,11,0.07
2013-3-6,33.0,29.2,26.0,25.0,21.0,18.0,73,71,70,30.29,30.05,5,1,11,0.17
2013-3-7,33.0,24.8,13.0,23.0,16.7,6.0,74,71,62,30.42,30.29,2,0,7,0.03
2013-3-8,41.0,29.2,15.0,30.0,20.7,8.0,74,70,63,30.45,30.27,3,0,10,0.01
2013-3-9,43.0,35.6,29.0,34.0,27.0,21.0,75,71,68,30.27,29.80,3,1,11,0.33
2013-3-10,41.0,38.3,36.0,34.0,31.1,29.0,77,76,73,29.81,29.61,5,1,14,1.15
2013-3-11,36.0,33.4,30.0,29.0,26.8,22.0,78,76,71,29.72,29.53,9,2,19,0.34
2013-3-12,33.0,29.5,27.0,25.0,21.6,19.0,75,72,68,29.98,29.72,9,4,19,0.04
2013-3-13,33.0,25.4,19.0,19.0,14.5,12.0,76,64,45,30.29,29.98,9,4,18,0.01
2013-3-14,37.0,27.0,16.0,27.0,18.2,9.0,75,69,58,30.29,30.05,1,0,7,0.00
2013-3-15,36.0,30.9,26.0,28.0,22.8,19.0,76,72,69,30.05,29.80,6,1,11,0.05
2013-3-16,31.0,26.9,21.0,23.0,18.9,13.0,73,72,70,30.12,29.80,5,1,13,0.01
2013-3-17,30.0,24.1,17.0,21.0,16.4,10.0,75,72,66,30.25,30.01,6,2,13,0.01
2013-3-18,34.0,28.6,18.0,26.0,20.7,11.0,75,72,70,30.01,29.55,9,3,27,0.20
2013-3-19,30.0,20.3,13.0,16.0,11.5,7.0,77,69,54,30.01,29.69,13,6,28,0.01
2013-3-20,20.0,15.4,10.0,11.0,5.7,1.0,70,65,58,30.05,29.99,11,5,23,0.00
2013-3-21,28.0,18.4,9.0,16.0,9.5,3.0,77,68,56,30.04,29.99,6,2,13,0.00
2013-3-22,34.0,23.2,11.0,21.0,14.1,5.0,76,68,54,30.06,30.01,1,0,6,0.00
2013-3-23,38.0,27.2,17.0,24.0,17.8,10.0,74,67,55,30.14,30.06,1,0,5,0.00
2013-3-24,33.0,30.5,28.0,24.0,22.2,20.0,74,71,69,30.06,29.77,5,1,11,0.09
2013-3-25,36.0,30.2,24.0,28.0,22.7,16.0,74,73,71,30.08,29.80,5,2,14,0.01
2013-3-26,42.0,34.7,30.0,31.0,26.1,23.0,74,71,60,30.24,30.08,5,1,12,0.00
2013-3-27,43.0,36.3,31.0,29.0,25.5,23.0,74,65,47,30.31,30.23,4,0,10,0.00
2013-3-28,46.0,35.9,27.0,28.0,23.1,20.0,74,61,40,30.34,30.28,5,0,8,0.00
2013-3-29,50.0,37.0,24.0,32.0,24.4,16.0,76,61,41,30.33,30.23,3,0,7,0.00
2013-3-30,55.0,42.6,31.0,41.0,31.0,-99.9,73,67,57,30.23,29.81,4,0,12,0.01
2013-3-31,48.0,40.4,34.0,38.0,31.3,22.0,73,70,59,29.88,29.70,10,4,28,0.01
2013-4-1,36.0,31.2,26.0,22.0,17.4,-99.9,73,58,44,30.17,29.88,8,4,21,0.01
2013-4-2,41.0,32.1,25.0,21.0,17.0,-99.9,71,55,38,30.30,30.16,8,3,19,0.00
2013-4-3,46.0,34.5,21.0,24.0,19.1,14.0,74,55,30,30.45,0.30,2,0,9,0.00
2013-4-4,57.0,42.8,29.0,39.0,29.0,20.0,71,59,45,30.28,29.94,6,2,19,0.00
2013-4-5,49.0,38.5,29.0,31.0,26.7,20.0,73,63,42,30.24,30.03,6,1,15,0.00
2013-4-6,62.0,46.7,35.0,47.0,35.2,22.0,72,64,51,30.15,29.54,6,2,15,0.06
2013-4-7,53.0,44.3,37.0,41.0,33.8,28.0,71,67,58,29.95,29.54,10,4,25,0.04
2013-4-8,48.0,42.1,37.0,38.0,33.5,28.0,75,71,67,29.99,29.61,5,1,12,0.48
2013-4-9,42.0,39.3,37.0,35.0,31.9,29.0,77,75,71,30.02,29.88,5,2,14,1.07
2013-4-10,38.0,36.1,33.0,31.0,28.4,26.0,76,74,71,30.06,29.89,7,4,19,1.12
2013-4-11,38.0,36.7,35.0,31.0,29.2,28.0,75,74,71,29.93,29.57,13,6,30,0.35
2013-4-12,41.0,37.0,35.0,32.0,29.0,26.0,77,73,69,29.78,29.51,6,2,16,0.07
2013-4-13,39.0,35.7,32.0,30.0,27.0,23.0,74,71,67,29.98,29.77,8,4,24,0.01
2013-4-14,53.0,38.2,31.0,40.0,29.1,22.0,76,70,67,30.00,29.58,10,4,25,0.06
2013-4-15,60.0,50.8,42.0,47.0,40.6,32.0,77,68,54,29.95,29.57,9,2,23,0.66
2013-4-16,53.0,43.3,34.0,39.0,32.8,25.0,72,67,55,30.29,29.94,7,1,16,0.02
2013-4-17,43.0,40.7,38.0,36.0,32.2,29.0,75,71,68,30.32,29.88,9,2,21,0.67
2013-4-18,58.0,47.2,41.0,51.0,39.8,31.0,78,75,69,29.88,29.32,9,2,27,0.64
2013-4-19,40.0,36.5,32.0,31.0,27.8,23.0,73,71,66,29.89,29.35,12,7,30,0.07
2013-4-20,46.0,35.5,27.0,26.0,21.3,18.0,74,58,35,30.40,29.88,8,2,16,0.01
2013-4-21,51.0,40.2,31.0,34.0,27.6,-99.9,73,62,49,30.50,30.27,7,2,16,0.00
2013-4-22,69.0,53.8,42.0,48.0,38.9,33.0,72,58,40,30.28,30.01,5,1,12,0.00
2013-4-23,54.0,44.8,38.0,44.0,35.0,29.0,71,68,60,30.02,29.88,7,1,18,0.19
2013-4-24,54.0,43.2,33.0,33.0,28.2,25.0,73,57,36,30.02,29.96,9,2,19,0.01
2013-4-25,52.0,44.8,38.0,35.0,32.3,29.0,71,62,46,30.29,29.96,9,3,22,0.06
2013-4-26,69.0,54.2,37.0,50.0,40.1,29.0,76,60,48,30.29,30.14,8,2,24,0.01
2013-4-27,68.0,58.5,47.0,52.0,45.8,37.0,69,63,49,30.24,30.01,4,0,10,0.00
2013-4-28,73.0,58.5,44.0,50.0,43.7,34.0,70,59,40,30.02,29.80,3,0,7,0.00
2013-4-29,69.0,60.9,50.0,55.0,49.4,41.0,73,66,60,29.86,29.73,4,0,10,0.03
2013-4-30,87.0,72.7,60.0,63.0,54.6,49.0,69,55,33,29.88,29.70,9,2,21,0.01
2013-5-1,83.0,69.7,54.0,62.0,55.2,44.0,69,61,44,30.22,29.88,3,1,8,0.00
2013-5-2,56.0,47.1,39.0,45.0,37.9,30.0,74,70,66,30.29,30.19,5,1,9,0.83
2013-5-3,50.0,42.2,36.0,41.0,34.6,29.0,75,74,71,30.23,30.00,4,1,9,1.04
2013-5-4,70.0,58.0,46.0,55.0,46.2,38.0,73,65,52,30.06,29.98,7,1,15,0.03
2013-5-5,74.0,60.1,44.0,55.0,45.8,35.0,72,60,41,30.08,30.01,5,0,13,0.01
2013-5-6,76.0,61.5,45.0,54.0,43.5,35.0,71,54,30,30.09,29.99,2,0,8,0.00
2013-5-7,78.0,65.0,49.0,51.0,45.6,39.0,70,52,31,30.08,29.99,3,0,10,0.00
2013-5-8,82.0,67.3,47.0,56.0,47.6,37.0,70,52,26,30.06,29.96,3,0,8,0.00
2013-5-9,69.0,57.5,46.0,57.0,47.3,38.0,75,69,59,29.98,29.89,6,1,12,0.79
2013-5-10,50.0,44.1,42.0,40.0,34.7,-99.9,76,73,68,29.99,29.87,4,1,11,1.51
2013-5-11,52.0,46.3,41.0,43.0,34.9,-99.9,77,67,43,30.03,29.78,11,3,22,0.03
2013-5-12,54.0,45.0,36.0,34.0,29.8,27.0,70,56,36,30.11,30.03,8,3,18,0.01
2013-5-13,63.0,48.6,31.0,40.0,32.7,23.0,75,56,33,30.18,29.93,4,1,12,0.00
2013-5-14,85.0,66.0,48.0,61.0,50.3,36.0,66,58,42,29.94,29.59,4,1,13,0.00
2013-5-17,57.0,56.8,56.0,47.0,46.2,45.0,68,67,67,30.06,30.05,2,1,9,0.63
2013-5-18,79.0,65.4,53.0,64.0,53.3,42.0,69,65,61,30.07,29.95,4,1,11,0.04
2013-5-19,87.0,72.3,59.0,68.0,59.0,49.0,70,63,51,29.96,29.65,6,1,21,0.00
2013-5-20,85.0,76.3,65.0,65.0,60.4,53.0,67,59,45,29.78,29.65,7,1,19,0.00
2013-5-21,80.0,71.0,60.0,65.0,57.7,49.0,67,63,51,29.70,29.62,7,1,23,0.02
2013-5-22,66.0,60.9,55.0,58.0,51.9,47.0,76,72,65,29.78,29.64,3,0,7,1.97
2013-5-23,58.0,51.9,43.0,48.0,42.2,33.0,76,70,55,30.31,29.78,5,1,15,1.05
2013-5-24,63.0,49.6,36.0,46.0,37.6,28.0,74,64,48,30.46,30.31,4,0,9,0.01
2013-5-25,62.0,53.7,45.0,44.0,40.0,36.0,72,60,48,30.40,30.30,5,1,13,0.00
2013-5-26,66.0,54.9,40.0,49.0,42.2,31.0,72,63,48,30.32,30.18,5,1,13,0.01
2013-5-27,55.0,53.1,50.0,45.0,43.9,42.0,75,71,65,30.19,29.91,7,3,19,0.03
2013-5-28,75.0,61.6,51.0,62.0,52.5,43.0,78,72,64,29.91,29.71,3,0,10,0.46
2013-5-29,85.0,72.1,61.0,70.0,60.9,53.0,78,68,57,29.91,29.78,4,0,15,0.01
2013-5-30,87.0,75.0,64.0,71.0,62.5,54.0,72,65,58,29.90,29.73,4,1,14,0.30
2013-5-31,77.0,69.3,63.0,64.0,58.4,54.0,75,68,63,29.81,29.70,4,0,11,0.27
2013-6-1,79.0,71.2,63.0,66.0,59.1,-99.9,76,69,61,29.70,29.62,7,1,15,0.06
2013-6-2,63.0,56.1,48.0,52.0,45.2,38.0,71,67,57,30.02,29.68,6,2,18,0.03
2013-6-3,71.0,58.4,42.0,50.0,44.2,35.0,77,61,42,30.11,30.02,4,0,9,0.00
2013-6-4,72.0,60.6,52.0,56.0,47.8,42.0,70,63,49,30.19,30.09,6,1,14,0.05
2013-6-5,65.0,56.8,52.0,54.0,46.3,42.0,70,68,66,30.15,29.98,7,1,13,0.11
2013-6-6,60.0,56.1,52.0,49.0,46.2,43.0,75,70,66,29.98,29.93,2,0,9,0.31
2013-6-7,72.0,61.2,53.0,56.0,48.2,43.0,70,63,45,30.00,29.92,2,0,10,0.01
2013-6-8,73.0,61.0,48.0,55.0,47.7,40.0,75,63,44,30.02,29.93,2,0,9,0.00
2013-6-9,79.0,67.8,50.0,64.0,55.7,39.0,70,66,57,30.03,29.83,8,2,20,0.00
2013-6-10,81.0,71.1,61.0,68.0,59.3,52.0,71,66,60,29.86,29.78,2,0,7,0.00
2013-6-11,86.0,73.9,60.0,69.0,61.4,52.0,76,65,55,29.93,29.80,3,0,10,0.00
2013-6-12,78.0,69.8,62.0,66.0,59.0,54.0,75,69,64,29.91,29.64,9,1,24,1.75
2013-6-13,77.0,67.4,57.0,64.0,56.1,47.0,75,67,60,30.08,29.77,3,0,11,1.71
2013-6-14,79.0,65.9,52.0,63.0,53.8,44.0,74,65,54,30.16,30.01,3,0,8,0.01
2013-6-15,82.0,69.3,56.0,69.0,58.3,46.0,76,68,64,30.09,29.82,2,0,13,0.56
2013-6-16,85.0,74.8,65.0,67.0,59.5,54.0,76,61,38,29.92,29.84,4,1,13,0.74
2013-6-17,87.0,72.8,61.0,66.0,57.5,48.0,69,60,43,29.99,29.86,6,1,15,0.01
2013-6-18,72.0,62.2,54.0,59.0,49.9,44.0,70,64,50,30.11,29.98,4,0,11,0.00
2013-6-19,80.0,63.7,47.0,56.0,48.5,38.0,71,59,40,30.16,30.07,1,0,7,0.00
2013-6-20,88.0,65.6,56.0,66.0,51.6,45.0,69,62,42,30.16,30.09,0,0,7,0.00
2013-6-22,83.0,75.8,68.0,71.0,64.1,59.0,73,67,64,30.10,29.91,2,0,9,0.54
2013-6-23,89.0,76.1,64.0,75.0,64.9,56.0,76,69,64,30.02,29.87,2,0,10,0.30
2013-6-24,82.0,74.3,68.0,70.0,63.2,59.0,75,69,64,30.02,29.84,5,0,12,0.00
2013-6-25,85.0,73.7,66.0,72.0,63.4,58.0,76,71,64,29.97,29.81,6,0,11,1.06
2013-6-26,82.0,74.1,68.0,70.0,63.7,60.0,76,70,65,29.82,29.72,4,0,10,0.50
2013-6-27,88.0,76.7,69.0,73.0,65.5,58.0,76,68,60,29.79,29.70,5,1,13,0.21
2013-6-28,78.0,71.8,65.0,66.0,60.7,55.0,72,68,62,29.74,29.62,6,1,16,0.01
2013-6-29,74.0,67.0,64.0,63.0,56.9,53.0,75,70,66,29.84,29.63,2,0,13,0.18
2013-6-30,78.0,66.3,58.0,64.0,53.8,47.0,71,65,46,30.05,29.83,3,0,13,0.02
2013-7-1,79.0,67.1,56.0,61.0,53.0,46.0,71,62,43,30.13,30.05,5,0,11,0.00
2013-7-2,75.0,64.2,55.0,56.0,50.3,45.0,71,61,41,30.14,30.08,5,1,11,0.00
2013-7-3,71.0,65.8,60.0,61.0,55.2,50.0,71,69,66,30.09,30.03,5,0,10,0.03
2013-7-4,86.0,73.9,62.0,65.0,59.3,53.0,75,62,42,30.09,30.02,1,0,8,0.01
2013-7-5,89.0,77.6,63.0,70.0,63.4,53.0,72,62,50,30.08,30.00,1,0,8,0.00
2013-7-6,90.0,76.8,63.0,70.0,62.2,54.0,72,62,47,30.06,29.96,3,0,9,0.00
2013-7-7,89.0,78.6,67.0,75.0,66.6,56.0,74,67,58,29.99,29.92,0,0,6,0.00
2013-7-8,89.0,77.8,72.0,76.0,65.0,-99.9,72,67,64,29.99,29.91,4,0,11,0.04
2013-7-9,85.0,76.3,69.0,73.0,64.8,60.0,74,68,64,30.01,29.82,4,0,14,0.32
2013-7-10,80.0,73.5,64.0,66.0,59.2,-99.9,73,63,52,30.03,29.84,5,1,14,0.01
2013-7-11,82.0,70.5,57.0,64.0,56.5,48.0,75,62,45,30.13,30.02,0,0,6,0.00
2013-7-12,83.0,68.4,55.0,61.0,54.3,46.0,73,62,33,30.17,30.09,0,0,7,0.00
2013-7-13,85.0,73.4,59.0,67.0,59.0,48.0,70,62,48,30.18,30.10,2,0,8,0.00
2013-7-14,88.0,77.5,66.0,72.0,64.5,54.0,70,65,57,30.24,30.16,1,0,7,0.00
2013-7-15,92.0,79.4,67.0,76.0,67.0,57.0,71,66,56,30.29,30.22,5,0,11,0.07
2013-7-16,94.0,83.8,72.0,79.0,71.8,63.0,75,67,60,30.30,30.23,3,0,10,0.07
2013-7-17,96.0,86.3,75.0,79.0,73.0,65.0,73,65,55,30.31,30.17,2,0,10,0.00
2013-7-18,95.0,88.5,74.0,79.0,74.3,65.0,74,63,55,30.17,29.91,3,1,18,0.00
2013-7-19,91.0,83.5,74.0,77.0,70.5,63.0,70,65,55,29.91,29.74,6,2,18,0.00
2013-7-20,89.0,73.3,61.0,68.0,59.8,-99.9,72,64,49,29.98,29.83,3,0,14,0.37
2013-7-21,81.0,67.2,59.0,69.0,57.1,49.0,74,70,65,29.99,29.88,4,1,10,2.44
2013-7-22,87.0,75.2,62.0,73.0,64.2,54.0,76,69,59,29.90,29.63,2,0,10,0.14
2013-7-23,75.0,69.2,59.0,62.0,57.3,48.0,72,66,58,30.00,29.72,3,0,10,0.01
2013-7-24,75.0,65.1,52.0,59.0,52.5,44.0,75,64,50,30.09,30.01,3,0,10,0.01
2013-7-25,81.0,67.9,53.0,67.0,56.8,44.0,74,68,59,30.09,29.97,0,0,7,0.01
2013-7-26,74.0,67.7,61.0,64.0,57.5,51.0,74,70,67,29.98,29.85,4,0,8,0.27
2013-7-27,62.0,56.8,52.0,51.0,47.3,43.0,75,71,65,29.96,29.87,5,1,14,0.01
2013-7-28,68.0,58.8,51.0,57.0,49.1,43.0,74,71,63,30.01,29.84,6,2,18,0.03
2013-7-29,74.0,64.3,54.0,61.0,54.0,44.0,74,70,62,30.19,30.00,3,0,10,0.01
2013-7-30,77.0,67.2,57.0,66.0,57.2,48.0,73,70,67,30.19,30.11,1,0,6,0.00
2013-7-31,82.0,68.7,61.0,70.0,58.8,52.0,75,71,67,30.10,29.96,1,0,7,0.26
2013-8-1,79.0,70.0,60.0,61.0,56.7,51.0,74,63,49,30.00,29.92,6,1,14,0.03
2013-8-2,81.0,70.1,61.0,67.0,58.5,51.0,74,67,51,29.96,29.84,3,0,12,0.09
2013-8-3,79.0,69.1,54.0,61.0,55.0,45.0,73,62,47,30.12,29.96,1,0,12,0.04
2013-8-4,76.0,66.2,55.0,60.0,54.4,45.0,72,66,54,30.23,30.12,1,0,7,0.00
2013-8-5,76.0,64.7,57.0,65.0,54.7,47.0,72,70,67,30.14,29.87,2,0,7,0.01
2013-8-6,85.0,74.5,65.0,73.0,63.7,56.0,74,69,61,29.88,29.80,4,0,9,0.01
2013-8-7,82.0,74.9,64.0,69.0,63.7,54.0,72,68,63,29.98,29.76,4,0,14,0.00
2013-8-8,79.0,70.4,62.0,63.0,58.3,53.0,75,66,55,30.07,29.98,3,0,10,0.00
2013-8-9,81.0,69.9,56.0,68.0,54.9,-99.9,73,66,53,30.07,29.98,5,1,11,0.00
2013-8-10,77.0,68.8,54.0,62.0,56.1,46.0,74,64,54,30.16,30.06,1,0,9,0.00
2013-8-11,75.0,66.0,56.0,65.0,56.3,47.0,75,71,67,30.14,30.04,2,0,8,0.05
2013-8-12,82.0,73.0,63.0,68.0,61.6,53.0,76,68,57,30.03,29.91,3,0,10,0.16
2013-8-13,71.0,60.3,50.0,55.0,47.6,-99.9,74,67,52,30.18,30.00,2,0,10,0.11
2013-8-14,75.0,63.1,48.0,56.0,48.3,-99.9,75,62,50,30.23,30.13,1,0,9,0.00
2013-8-15,79.0,59.0,56.0,62.0,34.5,-99.9,73,59,46,30.16,30.09,2,0,9,0.00
2013-8-16,83.0,67.8,54.0,63.0,49.0,-99.9,75,60,45,30.20,30.13,0,0,7,0.00
2013-8-17,81.0,68.9,56.0,61.0,52.7,-99.9,75,60,47,30.26,30.18,0,0,6,0.00
2013-8-18,82.0,72.2,53.0,63.0,58.2,45.0,75,62,48,30.24,30.10,0,0,6,0.00
2013-8-19,83.0,66.2,57.0,67.0,46.1,-99.9,74,65,53,30.12,30.02,0,0,9,0.00
2013-8-20,89.0,74.0,63.0,71.0,59.9,-99.9,75,66,51,30.09,30.01,2,0,10,0.00
2013-8-21,90.0,79.3,69.0,75.0,67.2,58.0,72,66,57,30.03,29.91,3,0,11,0.00
2013-8-22,82.0,71.9,64.0,72.0,61.7,56.0,74,70,66,30.13,29.99,4,0,9,0.69
2013-8-23,80.0,69.3,57.0,65.0,58.1,47.0,73,68,57,30.20,30.13,0,0,7,0.01
2013-8-24,85.0,70.5,56.0,70.0,57.6,-99.9,73,67,59,30.27,30.17,0,0,6,0.00
2013-8-25,91.0,78.4,66.0,74.0,66.0,56.0,73,66,56,30.20,30.10,3,0,19,0.00
2013-8-26,91.0,80.1,71.0,79.0,69.3,60.0,72,70,65,30.14,29.96,4,0,15,0.00
2013-8-27,94.0,80.7,74.0,79.0,68.8,62.0,71,67,62,29.97,29.81,42,3,11,0.00
2013-8-28,86.0,81.3,75.0,75.0,71.0,66.0,73,71,69,30.04,30.00,0,0,5,0.00
2013-8-29,90.0,81.8,64.0,73.0,69.0,56.0,75,66,57,30.10,29.98,0,0,6,0.00
2013-8-30,92.0,78.0,68.0,80.0,66.9,57.0,72,69,65,29.99,29.78,4,0,13,0.07
2013-8-31,80.0,69.7,64.0,69.0,58.0,-99.9,73,69,67,29.89,29.80,1,0,5,0.07
2013-9-1,85.0,72.4,63.0,73.0,62.7,54.0,75,72,67,29.84,29.72,5,1,11,0.01
2013-9-2,72.0,65.0,55.0,60.0,55.0,45.0,74,70,60,30.01,29.83,3,0,9,0.01
2013-9-3,76.0,65.6,48.0,58.0,52.9,40.0,75,65,49,30.10,30.01,2,0,11,0.00
2013-9-4,83.0,70.3,53.0,67.0,58.6,45.0,75,67,54,30.11,30.05,3,1,11,0.00
2013-9-5,74.0,65.4,55.0,61.0,54.5,46.0,75,68,60,30.29,30.15,4,1,10,0.00
2013-9-6,88.0,68.9,50.0,71.0,57.3,41.0,74,67,55,30.24,29.99,0,0,7,0.00
2013-9-7,89.0,74.5,68.0,75.0,62.3,-99.9,73,68,63,29.98,29.89,3,0,10,0.00
2013-9-8,72.0,67.4,63.0,63.0,57.3,53.0,73,70,68,30.08,29.97,4,1,10,0.00
2013-9-9,93.0,78.8,66.0,79.0,68.1,56.0,73,69,63,29.99,29.78,0,0,11,0.00
2013-9-10,95.0,83.5,73.0,72.0,67.9,64.0,74,61,40,29.95,29.82,6,1,16,0.00
2013-9-11,82.0,75.1,66.0,69.0,64.6,57.0,73,70,62,30.05,29.94,5,1,13,0.09
2013-9-12,76.0,66.9,57.0,63.0,55.4,49.0,75,67,52,30.14,29.98,4,1,15,0.01
2013-9-13,65.0,54.5,45.0,49.0,43.3,36.0,76,67,45,30.24,30.15,1,0,10,0.01
2013-9-14,73.0,60.8,40.0,52.0,44.3,-99.9,75,59,47,30.18,30.00,2,0,9,0.00
2013-9-15,60.0,56.5,54.0,50.0,47.3,44.0,75,71,68,30.24,30.00,0,0,6,0.59
2013-9-16,64.0,53.1,41.0,51.0,43.7,33.0,76,70,54,30.40,30.24,2,0,10,0.01
2013-9-17,71.0,62.8,43.0,57.0,52.5,35.0,76,69,61,30.35,30.11,1,0,7,0.00
2013-9-18,69.0,60.8,58.0,58.0,51.1,48.0,73,71,68,30.10,29.90,1,0,6,0.13
2013-9-19,85.0,73.5,67.0,75.0,63.5,58.0,74,71,66,29.91,29.72,6,0,15,0.91
2013-9-20,73.0,66.5,57.0,65.0,57.6,47.0,76,73,68,29.83,29.73,5,1,18,0.01
2013-9-21,59.0,53.1,46.0,50.0,42.8,-99.9,77,70,67,29.96,29.83,4,1,11,0.01
2013-9-22,64.0,53.0,40.0,49.0,42.2,32.0,76,68,52,30.09,29.96,2,0,6,0.01
2013-9-23,66.0,54.2,44.0,54.0,45.3,36.0,76,71,63,30.13,30.04,4,1,11,0.00
2013-10-2,76.0,61.2,45.0,54.0,45.9,37.0,75,60,32,30.13,29.97,0,0,6,0.00
2013-10-3,76.0,67.2,57.0,67.0,57.3,46.0,74,71,65,30.00,29.84,4,0,8,0.00
2013-10-4,67.0,64.1,60.0,59.0,55.8,52.0,75,74,73,30.00,29.91,3,0,8,0.45
2013-10-5,73.0,65.7,60.0,63.0,57.2,52.0,77,74,69,29.98,29.75,3,0,8,0.65
2013-10-6,61.0,54.1,46.0,52.0,43.8,37.0,78,69,55,29.76,29.67,3,0,10,0.05
2013-10-7,65.0,52.2,45.0,50.0,42.2,36.0,78,70,51,30.08,29.71,5,1,14,0.03
2013-10-8,76.0,58.7,40.0,55.0,45.4,32.0,76,63,43,30.16,30.08,1,0,6,0.01
2013-10-9,75.0,59.8,50.0,55.0,47.6,41.0,76,66,41,30.23,30.13,0,0,6,0.00
2013-10-10,73.0,58.7,45.0,56.0,47.3,37.0,75,67,47,30.17,30.05,2,0,9,0.00
2013-10-11,75.0,63.2,54.0,62.0,52.6,44.0,75,69,59,30.06,29.93,5,0,13,0.00
2013-10-12,70.0,60.8,51.0,59.0,48.6,-99.9,76,67,51,30.15,29.91,6,1,16,0.19
2013-10-13,61.0,48.9,39.0,45.0,38.6,30.0,78,68,46,30.41,30.15,4,0,14,0.19
2013-10-14,60.0,46.0,34.0,49.0,37.0,26.0,76,71,58,30.43,30.15,5,1,12,0.00
2013-10-16,56.0,50.8,48.0,49.0,42.6,39.0,78,73,70,29.93,29.77,6,1,13,0.01
2013-10-17,53.0,46.8,41.0,46.0,38.7,32.0,78,73,71,29.93,29.80,4,0,13,0.08
2013-10-18,50.0,43.7,38.0,43.0,36.3,30.0,78,75,71,29.93,29.79,5,1,18,0.01
2013-10-19,52.0,41.6,35.0,40.0,31.0,-99.9,76,69,59,29.91,29.72,8,0,16,0.02
2013-10-20,49.0,41.5,30.0,42.0,31.6,-99.9,76,72,70,29.85,29.70,2,0,9,0.11
2013-10-21,46.0,40.3,32.0,39.0,32.6,26.0,79,74,65,29.93,29.73,7,2,19,0.01
2013-10-22,47.0,37.1,28.0,34.0,28.6,22.0,79,72,56,29.96,29.89,4,0,10,0.00
2013-10-23,43.0,36.1,27.0,32.0,26.7,20.0,79,69,50,30.00,29.93,5,1,15,0.00
2013-10-24,43.0,36.7,28.0,31.0,27.9,21.0,79,71,55,30.27,30.00,7,1,21,0.00
2013-10-25,51.0,44.0,27.0,34.0,30.1,20.0,77,59,48,30.35,29.90,8,4,20,0.00
2013-10-26,51.0,45.9,41.0,39.0,31.1,-99.9,74,58,50,30.05,29.77,9,4,22,0.90
2013-10-27,54.0,42.0,29.0,35.0,30.8,21.0,77,65,46,30.04,29.89,6,1,18,0.00
2013-10-28,44.0,39.4,37.0,36.0,30.6,-99.9,78,74,70,30.42,30.02,5,1,11,0.00
2013-10-29,54.0,43.4,35.0,44.0,36.0,29.0,78,75,69,30.40,30.15,4,1,11,0.00
2013-10-30,55.0,50.5,44.0,46.0,41.5,36.0,74,72,69,30.14,29.75,3,0,9,0.00
2013-10-31,62.0,56.0,45.0,54.0,47.8,36.0,75,74,71,29.75,29.23,8,2,23,1.11
2013-11-1,46.0,43.9,42.0,38.0,35.8,34.0,74,73,72,29.73,29.31,7,2,19,0.09
2013-11-2,44.0,40.1,38.0,38.0,31.2,-99.9,78,73,72,30.14,29.73,3,0,9,0.03
2013-11-3,51.0,40.6,28.0,40.0,32.4,21.0,78,73,58,30.29,30.14,2,0,8,0.01
2013-11-4,55.0,49.2,43.0,46.0,41.3,37.0,79,74,66,30.22,30.03,4,0,12,0.01
2013-11-5,55.0,51.0,48.0,48.0,43.1,39.0,78,74,71,30.24,29.88,2,0,9,0.22
2013-11-10,47.0,42.4,38.0,35.0,31.8,30.0,74,66,54,30.30,30.05,7,3,21,0.00
2013-11-11,43.0,33.1,24.0,35.0,25.3,16.0,80,73,66,30.52,30.05,4,1,14,0.10
2013-11-12,30.0,24.0,18.0,19.0,16.4,13.0,81,73,54,30.69,30.53,7,2,15,0.01
2013-11-13,40.0,29.8,19.0,23.0,18.6,14.0,81,65,47,30.54,30.06,9,3,19,0.01
2013-11-14,47.0,38.2,32.0,33.0,27.5,21.0,76,66,56,30.05,29.87,6,2,15,0.01
2013-11-15,55.0,43.7,36.0,40.0,34.5,30.0,79,70,57,29.92,29.86,3,0,9,0.01
2013-11-16,59.0,48.6,38.0,50.0,38.6,-99.9,77,71,70,29.88,29.49,6,1,15,0.05
2013-11-17,59.0,51.9,40.0,50.0,43.7,34.0,79,73,70,29.65,29.15,13,3,34,1.14
2013-11-18,40.0,33.6,26.0,34.0,26.8,21.0,80,76,67,30.24,29.65,11,5,27,0.01
2013-11-19,40.0,30.2,20.0,29.0,22.8,13.0,80,74,62,30.36,30.24,2,0,8,0.00
2013-11-20,42.0,36.8,32.0,34.0,29.1,25.0,83,74,62,30.24,30.08,3,0,11,0.03
2013-11-21,44.0,40.0,36.0,38.0,32.7,28.0,79,75,72,30.23,30.10,1,0,8,0.01
2013-11-22,39.0,31.2,23.0,32.0,24.4,17.0,80,76,68,30.46,30.22,5,1,12,0.03
2013-11-23,25.0,18.1,12.0,19.0,7.6,-99.9,79,66,56,30.69,30.39,9,3,19,0.02
2013-11-24,27.0,18.5,9.0,11.0,7.6,4.0,82,64,42,30.68,30.26,6,2,16,0.01
2013-11-25,30.0,26.1,22.0,24.0,18.6,11.0,80,73,59,30.27,29.99,7,4,19,0.01
2013-11-26,32.0,26.3,13.0,27.0,18.4,6.0,80,72,60,30.19,29.99,6,2,21,0.01
2013-12-4,50.0,42.1,37.0,43.0,35.1,30.0,81,76,71,29.75,29.45,9,1,26,0.05
2013-12-5,36.0,24.2,15.0,29.0,17.8,10.0,81,76,68,30.24,29.59,9,5,26,0.01
2013-12-6,17.0,11.3,8.0,10.0,4.9,2.0,81,75,64,30.52,30.23,6,3,13,0.00
2013-12-7,15.0,7.2,1.0,5.0,-0.6,-99.9,82,74,62,30.66,30.52,6,2,12,0.00
2013-12-8,23.0,16.3,6.0,16.0,10.2,1.0,81,77,71,30.58,29.93,5,1,11,0.00
2013-12-9,18.0,10.4,-4.0,12.0,5.0,-9.0,83,78,73,30.15,29.90,9,3,22,0.00
2013-12-10,18.0,7.1,-6.0,12.0,1.6,-10.0,83,78,68,30.23,29.89,11,3,27,0.00
2013-12-17,34.0,24.8,14.0,27.0,18.4,8.0,81,76,69,30.03,29.87,8,4,16,0.04
2013-12-18,32.0,23.0,9.0,25.0,16.0,4.0,82,74,57,30.09,29.74,6,1,14,0.01
2013-12-19,31.0,26.9,18.0,25.0,20.6,11.0,81,77,74,29.96,29.76,3,1,8,0.00
2013-12-20,25.0,23.8,23.0,19.0,17.3,16.0,77,76,74,29.88,29.79,4,1,8,0.00
2013-12-21,28.0,25.1,23.0,21.0,16.7,-99.9,75,73,74,29.87,29.71,3,0,7,0.00
2013-12-22,28.0,24.0,20.0,21.0,17.9,14.0,81,77,74,30.09,29.67,3,1,8,0.00
2013-12-23,20.0,12.4,1.0,14.0,7.5,-3.0,84,80,75,30.39,30.09,5,2,13,0.00
2013-12-24,10.0,1.9,-9.0,5.0,-2.3,-12.0,84,83,78,30.50,30.28,4,0,9,0.00
2013-12-25,23.0,19.5,11.0,18.0,14.1,6.0,83,79,77,30.27,30.04,5,1,12,0.00
2013-12-26,25.0,19.8,11.0,20.0,14.8,6.0,83,81,76,30.22,30.04,5,1,12,0.00
2013-12-27,36.0,25.8,9.0,30.0,20.1,4.0,82,79,74,30.23,29.98,7,1,13,0.01
2013-12-28,42.0,35.2,25.0,35.0,27.6,-99.9,81,76,73,30.02,29.75,6,1,13,0.45
2013-12-29,39.0,21.6,-1.0,32.0,15.3,-8.0,82,77,72,30.20,29.71,6,2,13,0.09